Location: ???????
(55.3754°N, 39.3545°E)
Time: 06:39:50
(UTC+00:00)

Cosmos 2219 Rocket - Pass Details

Date: 14 April 2026
Orbit: 826 x 845 km, 71.0° (Epoch: 12 May)

Event Time Altitude Azimuth Distance (km) Brightness Sun altitude
Rises 23:44:33 0° 323° (NW) 3,387 5.6 -18.5°
Reaches altitude 10° 23:47:14 10° 333° (NNW) 2,453 4.9 -18.3°
Maximum altitude 23:52:20 35° 38° (NE) 1,341 3.9 -17.8°
Drops below altitude 10° 23:57:28 10° 103° (ESE) 2,455 5.0 -17.4°
Sets 00:00:08 0° 113° (ESE) 3,390 5.6 -17.1°
